Estación meteorológica de Calldetenes (Osona, Plana de Vic)

Consulta los datos en tiempo real de la estación meteorológica de Calldetenes





Hora UTC 05:15
Temperatura 6.8 ºC
Suelo 15 cm 6.7 ºC
Humedad 100.0 %
Presión 1012.7 hPa
Pluja 0.1 mm
Velocidad viento 2.8 km/h
Dirección viento S
Radiación solar 14.0 W/m²

Webcam

Datos diarios 2026-05-05



Hora UTC (invierno +1h; verano +2h)
Temperatura (ºC) Humedad (%) Presión (hPa) Velocidad viento (km/h) Precipitación (mm) Radiación solar (W/m²)
Hora UTC Aire Suelo 15 cm Humedad Presión Vel. Dir. Vel. Max Dir. Intent. máx 5 min. Rad. Sol.
00:05 8.9 8.7 99.5 1012.9 3.1 SE 3.1 ESE 0.0 0.1
00:10 8.6 8.4 99.0 1012.9 1.2 ESE 3.2 E 0.0 0.2
00:15 8.4 8.2 99.1 1012.9 5.0 E 8.5 ESE 0.0 0.1
00:20 8.4 8.0 99.6 1012.9 6.0 E 8.5 ESE 0.0 0.1
00:25 8.4 7.9 99.7 1012.9 4.9 E 6.4 E 0.0 0.1
00:30 8.5 8.0 100.0 1012.9 5.9 ESE 8.5 ESE 0.0 0.1
00:35 8.4 8.2 99.7 1012.8 5.1 ESE 7.8 ESE 0.0 0.1
00:40 7.6 7.9 98.5 1012.8 5.8 ESE 8.1 SE 0.0 0.1
00:45 7.4 7.5 99.2 1012.8 3.7 ESE 6.4 SE 0.0 0.1
00:50 7.6 7.3 99.9 1012.8 2.3 ESE 5.3 ESE 0.0 0.1
00:55 7.6 7.2 99.9 1012.7 5.8 E 7.8 E 0.0 0.1
01:00 7.7 7.3 100.0 1012.7 7.3 E 8.5 E 0.0 0.1
01:05 7.7 7.4 100.0 1012.6 6.4 E 7.8 ESE 0.0 0.2
01:10 7.7 7.4 100.0 1012.6 6.1 ESE 8.1 E 0.0 0.1
01:15 7.7 7.3 100.0 1012.6 5.6 E 7.8 ESE 0.0 0.2
01:20 7.8 7.4 100.0 1012.6 3.3 SE 6.0 SE 0.0 0.2
01:25 7.8 7.4 100.0 1012.6 1.9 SW 3.5 W 0.0 0.2
01:30 7.9 7.4 100.0 1012.6 0.8 SSW 5.3 S 0.0 0.2
01:35 8.2 7.5 100.0 1012.6 3.6 SW 5.3 S 0.0 0.1
01:40 8.4 7.7 100.0 1012.6 3.9 SSW 7.1 SW 0.0 0.1
01:45 8.4 7.9 100.0 1012.7 3.1 SSE 5.6 SSE 0.0 0.1
01:50 8.2 7.9 99.9 1012.7 1.1 SE 4.9 ESE 0.0 0.1
01:55 7.8 7.6 99.6 1012.7 1.4 SSE 3.9 SE 0.0 0.1
02:00 7.5 7.4 99.4 1012.7 0.6 ENE 2.5 NE 0.0 0.1
02:05 7.5 7.3 99.8 1012.7 3.0 E 4.9 ENE 0.0 0.1
02:10 7.3 7.1 99.6 1012.7 2.6 NE 4.6 ENE 0.0 0.1
02:15 7.4 7.1 99.9 1012.7 3.1 ENE 4.2 ENE 0.0 0.1
02:20 7.4 7.0 100.0 1012.7 3.8 ESE 6.4 ESE 0.0 0.1
02:25 7.2 7.1 99.8 1012.7 3.8 ESE 6.0 ESE 0.0 0.1
02:30 6.7 6.8 99.2 1012.7 4.7 ESE 6.7 ESE 0.0 0.1
02:35 6.3 6.4 99.3 1012.7 4.0 ESE 7.1 ESE 0.0 0.1
02:40 6.2 6.1 99.6 1012.7 3.6 SE 4.9 ESE 0.0 0.1
02:45 6.2 6.0 99.8 1012.7 3.8 ESE 5.3 ESE 0.0 0.1
02:50 6.0 5.8 99.8 1012.7 5.2 E 6.4 E 0.0 0.1
02:55 6.1 5.8 100.0 1012.7 1.4 E 4.9 E 0.0 0.1
03:00 6.3 5.8 100.0 1012.7 2.8 ENE 4.6 ESE 0.0 0.1
03:05 6.8 6.1 100.0 1012.7 3.2 ESE 5.6 ESE 0.0 0.1
03:10 6.4 6.2 100.0 1012.7 1.8 ENE 2.5 ENE 0.0 0.1
03:15 6.0 6.0 99.9 1012.6 1.0 NNE 2.5 ENE 0.0 0.1
03:20 6.5 5.9 100.0 1012.6 0.0 NNE 0.0 NW 0.0 0.1
03:25 6.4 6.0 100.0 1012.6 0.8 N 2.5 NNW 0.0 0.1
03:30 6.2 5.9 100.0 1012.6 0.5 S 3.9 SSE 0.0 0.1
03:35 6.9 6.0 100.0 1012.6 4.1 S 6.7 SSW 0.0 0.1
03:40 7.1 6.4 100.0 1012.6 2.9 SW 4.9 SW 0.0 0.1
03:45 7.1 6.7 100.0 1012.6 3.5 SW 4.9 WSW 0.0 0.1
03:50 7.2 6.9 100.0 1012.6 3.2 SSW 6.4 S 0.0 0.1
03:55 7.3 7.2 100.0 1012.5 4.3 S 7.1 S 0.0 0.1
04:00 7.2 7.3 100.0 1012.5 3.7 SSW 4.9 SSW 0.0 0.1
04:05 7.0 7.3 100.0 1012.5 3.9 SSW 6.0 SSW 0.0 0.1
04:10 7.0 7.2 100.0 1012.5 3.6 SSW 5.6 SSW 0.0 0.1
04:15 6.9 7.1 100.0 1012.5 3.4 S 4.6 SSW 0.0 0.1
04:20 6.9 7.1 100.0 1012.5 3.1 S 4.9 S 0.0 0.1
04:25 6.8 7.1 100.0 1012.5 1.3 S 3.2 SSE 0.0 0.2
04:30 6.4 6.8 100.0 1012.5 3.0 S 4.9 S 0.0 0.5
04:35 6.9 6.7 100.0 1012.5 4.4 S 7.4 SSW 0.1 1.2
04:40 7.1 6.9 100.0 1012.5 3.6 S 5.6 S 0.0 2.1
04:45 6.8 6.9 100.0 1012.6 3.5 S 5.3 S 0.0 3.6
04:50 6.6 6.7 100.0 1012.6 2.9 S 4.6 SSW 0.0 5.1
04:55 6.3 6.4 100.0 1012.6 1.8 S 4.9 SSE 0.0 6.6
05:00 6.3 6.2 100.0 1012.6 3.2 S 5.3 S 0.0 8.2
05:05 6.5 6.3 100.0 1012.6 2.2 S 4.6 S 0.0 9.5
05:10 6.5 6.4 100.0 1012.6 2.4 S 4.6 SSW 0.0 11.7
05:15 6.8 6.7 100.0 1012.7 2.8 S 4.6 S 0.0 14.0
Máxima 8.9 8.7 100.0 1012.9 7.3 E 8.5 E 0.1 14.0
Mínima 6.0 5.8 98.5 1012.5
Total 0.1